Location: Unspecified
(47.4992°N, 121.7766°W)
Time: 14:38:40
(UTC-07:00)

Okean 3 - Visible Passes

Search period start: 25 September 2018 00:00
Search period end: 05 October 2018 00:00
Orbit: 576 x 603 km, 82.5° (Epoch: 24 September)

Date Brightness Start Highest point End Pass type
(mag) Time Alt. Az. Time Alt. Az. Time Alt. Az.
25 Sep 6.4 03:41:36 10° ESE 03:43:18 12° E 03:45:00 10° ENE visible
25 Sep 3.4 05:17:27 23° SSW 05:19:58 68° WNW 05:24:11 10° N visible
26 Sep 6.0 03:49:42 15° ESE 03:51:09 17° E 03:53:58 10° NE visible
26 Sep 3.7 05:26:16 28° SW 05:28:03 46° WNW 05:32:08 10° N visible
27 Sep 5.4 03:58:25 24° ESE 03:59:03 25° E 04:02:30 10° NE visible
27 Sep 4.2 05:35:01 27° WSW 05:36:10 32° WNW 05:39:58 10° N visible
28 Sep 4.9 04:07:05 35° E 04:07:05 35° E 04:10:50 10° NNE visible
28 Sep 4.6 05:43:39 22° W 05:44:20 23° WNW 05:47:43 10° NNW visible
29 Sep 4.4 04:15:40 45° ENE 04:15:40 45° ENE 04:19:03 10° NNE visible
29 Sep 5.1 05:52:14 16° WNW 05:52:32 17° WNW 05:55:15 10° NNW visible
30 Sep 4.4 04:24:12 45° NNE 04:24:12 45° NNE 04:27:10 10° NNE visible
30 Sep 5.4 06:00:46 12° WNW 06:00:47 12° WNW 06:02:22 10° NW visible
01 Oct 4.6 04:32:40 35° N 04:32:40 35° N 04:35:12 10° N visible
02 Oct 6.7 03:04:33 11° NE 03:04:33 11° NE 03:04:50 10° NE visible
02 Oct 5.0 04:41:06 26° NNW 04:41:06 26° NNW 04:43:09 10° N visible
03 Oct 6.6 03:12:56 12° NE 03:12:56 12° NE 03:13:26 10° NE visible
03 Oct 5.3 04:49:30 19° NNW 04:49:30 19° NNW 04:51:01 10° N visible
04 Oct 6.5 03:21:19 13° NNE 03:21:19 13° NNE 03:21:47 10° NNE visible
04 Oct 5.6 04:57:52 14° NNW 04:57:52 14° NNW 04:58:46 10° NNW visible
